�������l�o���
Date,Time,MP-1(��Sv/h),MP-2(��Sv/h),MP-3(��Sv/h),MP-4(��Sv/h),MP-5(��Sv/h),MP-6(��Sv/h),MP-7(��Sv/h),MP-8(��Sv/h),����,����(m/s),���J
2022/10/03,00:00,0.580,0.840,0.536,1.042,0.742,0.339,0.593,0.560,�k�k��,2.3,��
2022/10/03,00:10,0.580,0.841,0.536,1.041,0.742,0.340,0.595,0.558,�k�k��,2.2,��
2022/10/03,00:20,0.579,0.840,0.536,1.043,0.741,0.342,0.594,0.557,�k��,2.6,��
2022/10/03,00:30,0.581,0.841,0.536,1.044,0.741,0.340,0.594,0.557,�k�k��,2.3,��
2022/10/03,00:40,0.581,0.840,0.535,1.041,0.742,0.339,0.595,0.558,�k�k��,2.6,��
2022/10/03,00:50,0.579,0.839,0.536,1.042,0.742,0.338,0.595,0.560,�k��,2.3,��
2022/10/03,01:00,0.579,0.839,0.535,1.042,0.742,0.340,0.594,0.560,�k��,2.3,��
2022/10/03,01:10,0.580,0.840,0.532,1.042,0.743,0.339,0.593,0.558,�k��,2.2,��
2022/10/03,01:20,0.582,0.838,0.535,1.042,0.742,0.340,0.595,0.560,�k��,1.7,��
2022/10/03,01:30,0.579,0.838,0.535,1.043,0.741,0.339,0.594,0.559,�k�k��,2.3,��
2022/10/03,01:40,0.579,0.839,0.535,1.043,0.741,0.339,0.593,0.558,�k�k��,2.0,��
2022/10/03,01:50,0.577,0.838,0.535,1.041,0.742,0.339,0.595,0.559,�k�k��,2.0,��
2022/10/03,02:00,0.581,0.840,0.536,1.043,0.744,0.339,0.595,0.559,�k�k��,2.3,��
2022/10/03,02:10,0.580,0.840,0.535,1.042,0.742,0.340,0.595,0.558,�k��,2.8,��
2022/10/03,02:20,0.578,0.838,0.535,1.041,0.741,0.339,0.596,0.560,�k�k��,2.3,��
2022/10/03,02:30,0.579,0.838,0.536,1.044,0.743,0.341,0.594,0.560,�k�k��,2.6,��
2022/10/03,02:40,0.580,0.839,0.534,1.044,0.742,0.340,0.594,0.561,�k��,3.0,��
2022/10/03,02:50,0.579,0.840,0.533,1.043,0.741,0.340,0.595,0.558,�k��,3.5,��
2022/10/03,03:00,0.580,0.841,0.536,1.041,0.741,0.339,0.595,0.560,�k��,3.1,��
2022/10/03,03:10,0.580,0.838,0.535,1.043,0.742,0.340,0.595,0.559,�k�k��,3.0,��
2022/10/03,03:20,0.579,0.838,0.534,1.042,0.741,0.340,0.595,0.560,�k�k��,2.6,��
2022/10/03,03:30,0.580,0.840,0.535,1.042,0.741,0.340,0.595,0.558,�k�k��,2.6,��
2022/10/03,03:40,0.579,0.838,0.535,1.042,0.743,0.339,0.595,0.561,�k,2.3,��
2022/10/03,03:50,0.580,0.838,0.535,1.042,0.741,0.340,0.594,0.559,�k,2.5,��
2022/10/03,04:00,0.579,0.839,0.536,1.042,0.742,0.338,0.594,0.559,�k��,2.3,��
2022/10/03,04:10,0.579,0.837,0.535,1.042,0.741,0.340,0.596,0.559,�k��,3.3,��
2022/10/03,04:20,0.578,0.839,0.537,1.041,0.742,0.338,0.592,0.560,�k��,3.3,��
2022/10/03,04:30,0.580,0.839,0.536,1.043,0.741,0.339,0.594,0.559,�k�k��,2.6,��
2022/10/03,04:40,0.579,0.840,0.534,1.042,0.740,0.340,0.594,0.558,�k�k��,2.3,��
2022/10/03,04:50,0.578,0.840,0.536,1.042,0.742,0.341,0.595,0.559,�k�k��,2.3,��
2022/10/03,05:00,0.580,0.840,0.535,1.043,0.741,0.340,0.595,0.559,�k�k��,2.6,��
2022/10/03,05:10,0.580,0.838,0.537,1.041,0.740,0.341,0.594,0.560,�k�k��,2.3,��
2022/10/03,05:20,0.579,0.838,0.535,1.043,0.742,0.339,0.595,0.558,�k�k��,1.7,��
2022/10/03,05:30,0.581,0.837,0.533,1.041,0.741,0.339,0.594,0.559,�k��,2.3,��
2022/10/03,05:40,0.579,0.838,0.534,1.042,0.741,0.340,0.594,0.559,�k�k��,1.5,��
2022/10/03,05:50,0.578,0.836,0.535,1.041,0.740,0.340,0.597,0.559,�k��,1.7,��
2022/10/03,06:00,0.577,0.840,0.535,1.041,0.741,0.338,0.595,0.559,�k�k��,1.7,��
2022/10/03,06:10,0.579,0.838,0.534,1.041,0.740,0.341,0.594,0.558,�k��,2.0,��
2022/10/03,06:20,0.579,0.839,0.533,1.040,0.741,0.339,0.593,0.561,�k�k��,1.2,��
2022/10/03,06:30,0.578,0.839,0.535,1.043,0.740,0.339,0.594,0.560,�k��,1.4,��
2022/10/03,06:40,0.580,0.838,0.534,1.043,0.740,0.339,0.595,0.560,���k��,1.2,��
2022/10/03,06:50,0.580,0.838,0.534,1.044,0.741,0.339,0.594,0.560,���k��,1.2,��
2022/10/03,07:00,0.579,0.838,0.536,1.042,0.741,0.340,0.595,0.561,���k��,1.4,��
2022/10/03,07:10,0.580,0.838,0.535,1.042,0.739,0.340,0.594,0.561,��,0.9,��
2022/10/03,07:20,0.580,0.838,0.535,1.040,0.740,0.340,0.594,0.560,���쐼,0.8,��
2022/10/03,07:30,0.580,0.836,0.536,1.043,0.741,0.339,0.595,0.559,���k��,0.6,��
2022/10/03,07:40,0.580,0.839,0.535,1.042,0.742,0.339,0.595,0.560,�쐼,1.1,��
2022/10/03,07:50,0.580,0.839,0.534,1.043,0.742,0.339,0.595,0.560,��,0.8,��
2022/10/03,08:00,0.579,0.838,0.535,1.042,0.740,0.339,0.593,0.557,-,CALM,��
2022/10/03,08:10,0.580,0.839,0.536,1.042,0.741,0.340,0.594,0.560,��쓌,1.5,��
2022/10/03,08:20,0.580,0.838,0.535,1.042,0.741,0.340,0.591,0.560,�쓌,1.7,��
2022/10/03,08:30,0.581,0.838,0.538,1.041,0.740,0.338,0.593,0.560,���쓌,1.5,��
2022/10/03,08:40,0.579,0.837,0.535,1.043,0.742,0.337,0.593,0.558,���쓌,1.5,��
2022/10/03,08:50,0.580,0.835,0.537,1.044,0.740,0.339,0.592,0.558,���k��,2.0,��
2022/10/03,09:00,0.580,0.834,0.536,1.041,0.741,0.338,0.594,0.560,��,1.1,��
2022/10/03,09:10,0.580,0.837,0.536,1.042,0.741,0.338,0.593,0.559,���쓌,2.0,��
2022/10/03,09:20,0.579,0.837,0.537,1.042,0.740,0.338,0.592,0.556,���쓌,2.3,��
2022/10/03,09:30,0.579,0.838,0.536,1.043,0.738,0.338,0.592,0.557,���쓌,2.2,��
2022/10/03,09:40,0.581,0.838,0.536,1.043,0.738,0.337,0.593,0.558,���쓌,2.6,��
2022/10/03,09:50,0.581,0.836,0.534,1.044,0.742,0.337,0.593,0.558,���쓌,1.9,��
2022/10/03,10:00,0.581,0.839,0.534,1.043,0.741,0.338,0.593,0.558,�쓌,2.5,��
2022/10/03,10:10,0.578,0.837,0.536,1.043,0.740,0.338,0.593,0.559,���쓌,2.2,��
2022/10/03,10:20,0.581,0.840,0.535,1.042,0.742,0.339,0.593,0.558,��,2.2,��
2022/10/03,10:30,0.581,0.838,0.535,1.041,0.740,0.339,0.593,0.558,���쓌,2.5,��
2022/10/03,10:40,0.581,0.839,0.536,1.043,0.741,0.340,0.593,0.557,���쓌,2.0,��
2022/10/03,10:50,0.581,0.840,0.534,1.041,0.743,0.337,0.593,0.556,���쓌,2.5,��
2022/10/03,11:00,0.583,0.837,0.535,1.044,0.741,0.339,0.592,0.557,�쓌,2.8,��
2022/10/03,11:10,0.581,0.838,0.535,1.043,0.741,0.339,0.593,0.558,���쓌,2.8,��
2022/10/03,11:20,0.582,0.838,0.535,1.044,0.743,0.339,0.593,0.557,���쓌,2.0,��
2022/10/03,11:30,0.582,0.839,0.534,1.045,0.742,0.337,0.593,0.559,���쓌,2.3,��
2022/10/03,11:40,0.582,0.837,0.537,1.045,0.741,0.338,0.595,0.557,�쓌,2.6,��
2022/10/03,11:50,0.580,0.839,0.534,1.043,0.742,0.339,0.593,0.559,�쓌,2.6,��
2022/10/03,12:00,0.582,0.838,0.536,1.046,0.743,0.338,0.594,0.557,���쓌,3.0,��
2022/10/03,12:10,0.580,0.842,0.537,1.043,0.741,0.339,0.593,0.557,���쓌,3.4,��
2022/10/03,12:20,0.583,0.842,0.536,1.043,0.742,0.338,0.592,0.556,�쓌,2.3,��
2022/10/03,12:30,0.581,0.842,0.536,1.044,0.743,0.341,0.594,0.558,�쓌,3.0,��
2022/10/03,12:40,0.581,0.843,0.536,1.043,0.745,0.338,0.593,0.558,�쓌,3.1,��
2022/10/03,12:50,0.582,0.842,0.536,1.046,0.744,0.339,0.592,0.558,�쓌,3.6,��
2022/10/03,13:00,0.582,0.844,0.535,1.043,0.743,0.338,0.593,0.557,�쓌,3.6,��
2022/10/03,13:10,0.582,0.842,0.536,1.046,0.744,0.339,0.593,0.559,���쓌,3.1,��
2022/10/03,13:20,0.582,0.841,0.535,1.045,0.742,0.339,0.593,0.559,��쓌,2.3,��
2022/10/03,13:30,0.583,0.840,0.536,1.044,0.745,0.339,0.592,0.559,��,3.0,��
2022/10/03,13:40,0.582,0.843,0.536,1.045,0.743,0.339,0.593,0.559,�쓌,3.5,��
2022/10/03,13:50,0.579,0.840,0.537,1.044,0.743,0.339,0.594,0.557,��쓌,4.0,��
2022/10/03,14:00,0.580,0.841,0.536,1.045,0.744,0.338,0.593,0.558,�쓌,3.1,��
2022/10/03,14:10,0.580,0.841,0.535,1.044,0.743,0.340,0.593,0.557,�쓌,3.4,��
2022/10/03,14:20,0.582,0.842,0.534,1.043,0.743,0.339,0.593,0.559,�쓌,3.1,��
2022/10/03,14:30,0.582,0.839,0.535,1.044,0.742,0.338,0.593,0.559,��쓌,4.1,��
2022/10/03,14:40,0.583,0.840,0.538,1.044,0.745,0.339,0.592,0.559,��쓌,5.3,��
2022/10/03,14:50,0.583,0.840,0.536,1.044,0.743,0.338,0.593,0.557,��쓌,5.1,��
2022/10/03,15:00,0.579,0.841,0.535,1.043,0.744,0.338,0.593,0.557,��쓌,4.2,��
2022/10/03,15:10,0.582,0.840,0.536,1.045,0.744,0.339,0.593,0.557,��쓌,4.4,��
2022/10/03,15:20,0.580,0.841,0.539,1.045,0.744,0.338,0.592,0.557,��쓌,4.4,��
2022/10/03,15:30,0.580,0.841,0.537,1.044,0.744,0.338,0.593,0.558,��쓌,4.4,��
2022/10/03,15:40,0.582,0.843,0.537,1.045,0.744,0.339,0.592,0.559,��쓌,5.2,��
2022/10/03,15:50,0.582,0.843,0.535,1.045,0.745,0.339,0.593,0.558,��쓌,4.9,��
2022/10/03,16:00,0.581,0.844,0.536,1.046,0.743,0.339,0.594,0.558,��쓌,5.4,��
2022/10/03,16:10,0.583,0.842,0.536,1.047,0.743,0.340,0.593,0.560,��쓌,6.0,��
2022/10/03,16:20,0.583,0.842,0.535,1.043,0.744,0.340,0.593,0.559,��쓌,4.9,��
2022/10/03,16:30,0.583,0.842,0.536,1.046,0.744,0.342,0.593,0.558,��,6.2,��
2022/10/03,16:40,0.583,0.841,0.536,1.047,0.743,0.339,0.593,0.560,��,5.3,��
2022/10/03,16:50,0.583,0.841,0.538,1.045,0.742,0.341,0.594,0.560,��,4.5,��
2022/10/03,17:00,0.582,0.844,0.537,1.046,0.742,0.340,0.594,0.562,��,4.5,��
2022/10/03,17:10,0.582,0.844,0.535,1.043,0.742,0.340,0.594,0.560,��,5.3,��
2022/10/03,17:20,0.582,0.845,0.537,1.045,0.743,0.340,0.595,0.560,��,5.3,��
2022/10/03,17:30,0.583,0.846,0.535,1.045,0.745,0.342,0.594,0.562,��,5.2,��
2022/10/03,17:40,0.583,0.844,0.537,1.048,0.746,0.340,0.597,0.561,��,6.2,��
2022/10/03,17:50,0.586,0.846,0.539,1.047,0.747,0.341,0.596,0.560,��,5.9,��
2022/10/03,18:00,0.585,0.847,0.538,1.046,0.746,0.342,0.595,0.560,��,5.9,��
2022/10/03,18:10,0.584,0.844,0.538,1.045,0.745,0.341,0.596,0.561,��,6.0,��
2022/10/03,18:20,0.585,0.845,0.540,1.046,0.744,0.341,0.596,0.561,��,6.6,��
2022/10/03,18:30,0.586,0.846,0.541,1.045,0.745,0.341,0.596,0.560,��,7.0,��
2022/10/03,18:40,0.585,0.845,0.540,1.044,0.746,0.340,0.595,0.562,��,6.2,��
2022/10/03,18:50,0.585,0.845,0.538,1.047,0.745,0.341,0.595,0.561,��,6.6,��
2022/10/03,19:00,0.586,0.846,0.539,1.046,0.745,0.340,0.596,0.561,��,6.8,��
2022/10/03,19:10,0.585,0.846,0.541,1.047,0.746,0.341,0.595,0.561,��,6.5,��
2022/10/03,19:20,0.585,0.844,0.539,1.045,0.745,0.340,0.598,0.559,��,7.3,��
2022/10/03,19:30,0.583,0.845,0.538,1.044,0.745,0.341,0.597,0.559,��,7.2,��
2022/10/03,19:40,0.584,0.846,0.541,1.046,0.745,0.341,0.596,0.560,��,6.4,��
2022/10/03,19:50,0.584,0.847,0.538,1.046,0.746,0.342,0.596,0.559,��,6.2,��
2022/10/03,20:00,0.585,0.845,0.539,1.046,0.746,0.342,0.597,0.560,��,5.1,��
2022/10/03,20:10,0.586,0.848,0.540,1.047,0.745,0.340,0.597,0.560,��,4.0,��
2022/10/03,20:20,0.585,0.845,0.539,1.046,0.747,0.341,0.597,0.560,��쐼,3.9,��
2022/10/03,20:30,0.585,0.845,0.541,1.046,0.746,0.342,0.596,0.561,��쐼,5.5,��
2022/10/03,20:40,0.586,0.845,0.538,1.045,0.745,0.341,0.596,0.560,��,4.6,��
2022/10/03,20:50,0.585,0.846,0.540,1.047,0.747,0.341,0.598,0.560,��,6.5,��
2022/10/03,21:00,0.585,0.845,0.539,1.048,0.745,0.342,0.596,0.561,��,6.5,��
2022/10/03,21:10,0.585,0.845,0.538,1.048,0.746,0.341,0.595,0.560,��,6.6,��
2022/10/03,21:20,0.584,0.845,0.539,1.048,0.746,0.341,0.597,0.560,��,7.1,��
2022/10/03,21:30,0.584,0.846,0.540,1.046,0.745,0.342,0.597,0.561,��,6.6,��
2022/10/03,21:40,0.583,0.846,0.539,1.046,0.745,0.341,0.596,0.561,��,5.1,��
2022/10/03,21:50,0.583,0.846,0.537,1.046,0.746,0.340,0.595,0.560,��쐼,4.7,��
2022/10/03,22:00,0.585,0.845,0.538,1.047,0.744,0.340,0.596,0.560,��,6.6,��
2022/10/03,22:10,0.584,0.846,0.539,1.049,0.746,0.340,0.597,0.561,��,8.4,��
2022/10/03,22:20,0.583,0.843,0.537,1.046,0.748,0.342,0.596,0.561,��,8.3,��
2022/10/03,22:30,0.584,0.844,0.539,1.044,0.745,0.340,0.597,0.561,��,7.3,��
2022/10/03,22:40,0.583,0.844,0.537,1.046,0.747,0.340,0.598,0.561,��,7.6,��
2022/10/03,22:50,0.584,0.843,0.539,1.045,0.745,0.342,0.597,0.562,��,7.8,��
2022/10/03,23:00,0.584,0.844,0.539,1.045,0.747,0.342,0.596,0.559,��,7.6,��
2022/10/03,23:10,0.584,0.846,0.539,1.045,0.746,0.340,0.597,0.560,��,6.5,��
2022/10/03,23:20,0.584,0.843,0.539,1.048,0.746,0.341,0.599,0.561,��,4.2,��
2022/10/03,23:30,0.587,0.842,0.539,1.044,0.744,0.341,0.596,0.561,��,4.5,��
2022/10/03,23:40,0.585,0.844,0.539,1.046,0.745,0.342,0.597,0.561,��,5.8,��
2022/10/03,23:50,0.587,0.843,0.538,1.046,0.745,0.342,0.598,0.560,��,7.8,��
